Houghton, MI

2:52 PM EDT on September 21, 2017 (GMT -0400)
Houghton County Memorial

Weather History for KCMX - May, 2013

Change the Weather History Date:

Wednesday, May 1, 2013

  Actual Average Record
Temperature  
Mean Temperature 42 °F -  
Max Temperature 54 °F 52 °F 80 °F (1959)
Min Temperature 33 °F 34 °F 23 °F (1984)
Degree Days  
Heating Degree Days 22    
Moisture  
Dew Point 32 °F    
Average Humidity 77    
Maximum Humidity 100    
Minimum Humidity 40    
Precipitation  
Precipitation 0.01 in - - ()
Sea Level Pressure  
Sea Level Pressure 30.24 in    
Wind  
Wind Speed 14 mph (WNW)    
Max Wind Speed 22 mph    
Max Gust Speed 26 mph    
Visibility 9 miles    
Events Rain    
Averages and records for this station are not official NWS values.
T = Trace of Precipitation, MM = Missing Value Source: NWS Daily Summary

Daily Weather History Graph

Daily Weather History Graph

Search for Another Location

Airport or City:

Trip Planner

Search our weather history database for the weather conditions in past years. The results will help you decide how hot, cold, wet, or windy it might be!

Date:

Astronomy

May. 01, 2013 Rise Set
Actual Time 6:37 AM EDT 9:05 PM EDT
Civil Twilight 6:03 AM EDT 9:39 PM EDT
Nautical Twilight 5:20 AM EDT 10:22 PM EDT
Astronomical Twilight 4:31 AM EDT 11:11 PM EDT
Moon 2:15 AM EDT (5/1) 12:15 PM EDT (5/1)
Length of Visible Light 15h 36m
Length of Day
14h 27m
Waning Gibbous, 59% of the Moon is Illuminated
May 1
Waning Gibbous
May 2
Last Quarter
May 9
New
May 18
First Quarter
May 25
Full

Hourly Weather History & Observations

Time (EDT) Temp. Windchill Dew Point Humidity Pressure Visibility Wind Dir Wind Speed Gust Speed Precip Events Conditions
12:53 AM 52.0 °F - 28.0 °F 40% 29.85 in 10.0 mi West 10.4 mph - N/A   Overcast
1:53 AM 51.8 °F - 30.2 °F 44% 29.88 in 10.0 mi West 13.8 mph - N/A   Overcast
2:53 AM 51.1 °F - 30.9 °F 46% 29.91 in 10.0 mi WNW 16.1 mph - N/A   Overcast
3:53 AM 51.1 °F - 32.0 °F 48% 29.96 in 10.0 mi WNW 12.7 mph - N/A   Overcast
4:53 AM 50.0 °F - 33.1 °F 52% 29.97 in 10.0 mi West 19.6 mph - N/A   Partly Cloudy
5:53 AM 48.0 °F - 34.0 °F 58% 29.98 in 10.0 mi WNW 9.2 mph - N/A   Overcast
6:53 AM 46.0 °F 39.3 °F 33.1 °F 61% 30.04 in 10.0 mi WNW 16.1 mph - N/A   Overcast
7:53 AM 45.0 °F 39.7 °F 34.0 °F 65% 30.05 in 10.0 mi WNW 10.4 mph - 0.00 in Rain Light Rain
8:53 AM 43.0 °F 35.7 °F 33.1 °F 68% 30.09 in 10.0 mi WNW 15.0 mph - 0.00 in   Overcast
9:53 AM 39.9 °F 31.8 °F 35.1 °F 83% 30.17 in 10.0 mi West 15.0 mph - N/A   Overcast
10:53 AM 39.0 °F 29.3 °F 37.0 °F 93% 30.21 in 3.0 mi WNW 19.6 mph 25.3 mph 0.01 in Rain Light Rain
11:53 AM 39.2 °F 31.6 °F 35.6 °F 87% 30.21 in 10.0 mi WNW 12.7 mph - N/A   Overcast
12:53 PM 39.0 °F 31.4 °F 32.0 °F 76% 30.23 in 10.0 mi WNW 12.7 mph - N/A   Overcast
1:53 PM 37.9 °F 28.5 °F 30.9 °F 76% 30.25 in 10.0 mi West 17.3 mph - N/A   Overcast
2:53 PM 37.0 °F 26.2 °F 30.9 °F 79% 30.27 in 10.0 mi West 21.9 mph 26.5 mph N/A   Overcast
3:53 PM 37.0 °F 27.0 °F 30.0 °F 76% 30.30 in 10.0 mi WNW 18.4 mph 25.3 mph N/A   Overcast
4:53 PM 37.0 °F 28.1 °F 30.0 °F 76% 30.33 in 10.0 mi WNW 15.0 mph - N/A   Overcast
5:53 PM 36.0 °F 27.5 °F 30.0 °F 79% 30.36 in 10.0 mi West 12.7 mph - N/A   Overcast
6:38 PM 35.6 °F 26.2 °F 30.2 °F 81% 30.34 in 10.0 mi WNW 15.0 mph - N/A   Overcast
6:53 PM 35.1 °F 26.4 °F 30.0 °F 82% 30.38 in 10.0 mi WNW 12.7 mph 24.2 mph N/A   Overcast
7:22 PM 33.8 °F 23.5 °F 30.2 °F 87% 30.35 in 10.0 mi WNW 16.1 mph - N/A   Overcast
7:53 PM 34.0 °F 25.5 °F 32.0 °F 92% 30.40 in 10.0 mi WNW 11.5 mph - N/A   Overcast
8:09 PM 33.8 °F 24.8 °F 32.0 °F 93% 30.37 in 6.0 mi WNW 12.7 mph - N/A   Overcast
8:53 PM 33.1 °F 26.9 °F 32.0 °F 96% 30.43 in 2.5 mi WNW 6.9 mph - N/A   Overcast
9:06 PM 33.8 °F 25.3 °F 33.8 °F 100% 30.40 in 4.0 mi WNW 11.5 mph - N/A   Overcast
9:53 PM 34.0 °F 25.0 °F 33.1 °F 96% 30.44 in 10.0 mi WNW 12.7 mph - N/A   Overcast
10:29 PM 33.8 °F 25.8 °F 32.0 °F 93% 30.42 in 10.0 mi West 10.4 mph - N/A   Overcast
10:44 PM 33.8 °F 25.8 °F 32.0 °F 93% 30.42 in 10.0 mi West 10.4 mph - N/A   Overcast
10:53 PM 33.1 °F 24.9 °F 32.0 °F 96% 30.46 in 10.0 mi West 10.4 mph - N/A   Overcast
11:37 PM 33.8 °F 24.3 °F 32.0 °F 93% 30.42 in 10.0 mi WNW 13.8 mph - N/A   Overcast
11:53 PM 34.0 °F 25.0 °F 32.0 °F 92% 30.47 in 10.0 mi WNW 12.7 mph - N/A   Overcast